Time,TemperatureF,DewpointF,PressureIn,WindDirection,WindDirectionDegrees,WindSpeedMPH,WindSpeedGustMPH,Humidity,HourlyPrecipIn,Conditions,Clouds,dailyrainin,SoftwareType,DateUTC
2013-03-25 00:07:00,41.5,33.0,30.15,NNW,330,0.0,2.0,72,0.00,,,0.00,weatherlink.com 1.10,2013-03-25 05:07:00,
2013-03-25 00:22:00,40.8,33.0,30.15,NNW,330,0.0,0.0,74,0.00,,,0.00,weatherlink.com 1.10,2013-03-25 05:22:00,
2013-03-25 00:37:00,39.9,33.0,30.15,NNW,330,0.0,0.0,75,0.00,,,0.00,weatherlink.com 1.10,2013-03-25 05:37:00,
2013-03-25 00:53:00,39.3,33.0,30.16,NNW,330,0.0,0.0,77,0.00,,,0.00,weatherlink.com 1.10,2013-03-25 05:53:00,
2013-03-25 01:08:00,38.9,32.0,30.17,NNW,330,0.0,0.0,77,0.00,,,0.00,weatherlink.com 1.10,2013-03-25 06:08:00,
2013-03-25 01:23:00,38.5,33.0,30.17,NNW,330,0.0,0.0,80,0.00,,,0.00,weatherlink.com 1.10,2013-03-25 06:23:00,
2013-03-25 01:38:00,38.1,32.0,30.17,NNW,330,0.0,0.0,80,0.00,,,0.00,weatherlink.com 1.10,2013-03-25 06:38:00,
2013-03-25 01:53:00,37.7,32.0,30.17,NNW,330,0.0,0.0,80,0.00,,,0.00,weatherlink.com 1.10,2013-03-25 06:53:00,
2013-03-25 02:23:00,37.8,32.0,30.18,NNW,330,0.0,0.0,80,0.00,,,0.00,weatherlink.com 1.10,2013-03-25 07:23:00,
2013-03-25 02:38:00,37.7,32.0,30.18,NNW,330,0.0,2.0,80,0.00,,,0.00,weatherlink.com 1.10,2013-03-25 07:38:00,
2013-03-25 02:53:00,37.0,31.0,30.18,NNW,330,0.0,0.0,80,0.00,,,0.00,weatherlink.com 1.10,2013-03-25 07:53:00,
2013-03-25 03:08:00,36.3,31.0,30.18,NNW,330,0.0,1.0,81,0.00,,,0.00,weatherlink.com 1.10,2013-03-25 08:08:00,
2013-03-25 03:23:00,35.8,31.0,30.18,NNW,330,0.0,2.0,82,0.00,,,0.00,weatherlink.com 1.10,2013-03-25 08:23:00,
2013-03-25 03:38:00,36.4,31.0,30.18,NNW,330,0.0,2.0,82,0.00,,,0.00,weatherlink.com 1.10,2013-03-25 08:38:00,
2013-03-25 03:53:00,36.8,31.0,30.19,NNW,330,0.0,3.0,79,0.00,,,0.00,weatherlink.com 1.10,2013-03-25 08:53:00,
2013-03-25 04:08:00,36.4,30.0,30.19,NNW,330,0.0,2.0,78,0.00,,,0.00,weatherlink.com 1.10,2013-03-25 09:08:00,
2013-03-25 04:23:00,35.9,30.0,30.20,NNW,330,0.0,2.0,80,0.00,,,0.00,weatherlink.com 1.10,2013-03-25 09:23:00,
2013-03-25 04:38:00,35.8,30.0,30.21,NNW,330,0.0,2.0,79,0.00,,,0.00,weatherlink.com 1.10,2013-03-25 09:38:00,
2013-03-25 04:53:00,35.2,29.0,30.22,NNW,330,0.0,2.0,78,0.00,,,0.00,weatherlink.com 1.10,2013-03-25 09:53:00,
2013-03-25 05:08:00,34.5,29.0,30.22,NNW,330,0.0,0.0,80,0.00,,,0.00,weatherlink.com 1.10,2013-03-25 10:08:00,
2013-03-25 05:23:00,34.0,28.0,30.23,NNW,330,0.0,0.0,80,0.00,,,0.00,weatherlink.com 1.10,2013-03-25 10:23:00,
2013-03-25 05:38:00,33.6,29.0,30.23,NNW,330,0.0,1.0,82,0.00,,,0.00,weatherlink.com 1.10,2013-03-25 10:38:00,
2013-03-25 05:53:00,33.9,29.0,30.24,NNW,330,0.0,2.0,81,0.00,,,0.00,weatherlink.com 1.10,2013-03-25 10:53:00,
2013-03-25 06:08:00,33.7,28.0,30.24,NNW,330,0.0,0.0,80,0.00,,,0.00,weatherlink.com 1.10,2013-03-25 11:08:00,
2013-03-25 06:23:00,33.9,29.0,30.25,NNW,330,0.0,3.0,81,0.00,,,0.00,weatherlink.com 1.10,2013-03-25 11:23:00,
2013-03-25 06:38:00,33.7,28.0,30.25,NNW,330,2.0,2.0,81,0.00,,,0.00,weatherlink.com 1.10,2013-03-25 11:38:00,
2013-03-25 06:53:00,33.7,28.0,30.26,NNW,330,0.0,2.0,79,0.00,,,0.00,weatherlink.com 1.10,2013-03-25 11:53:00,
2013-03-25 07:08:00,33.5,28.0,30.27,NNW,330,0.0,2.0,79,0.00,,,0.00,weatherlink.com 1.10,2013-03-25 12:08:00,
2013-03-25 07:23:00,33.3,27.0,30.28,NNW,330,0.0,2.0,79,0.00,,,0.00,weatherlink.com 1.10,2013-03-25 12:23:00,
2013-03-25 07:39:00,33.2,27.0,30.28,NNW,330,0.0,2.0,79,0.00,,,0.00,weatherlink.com 1.10,2013-03-25 12:39:00,
2013-03-25 07:54:00,33.3,27.0,30.29,NNW,330,0.0,2.0,79,0.00,,,0.00,weatherlink.com 1.10,2013-03-25 12:54:00,
2013-03-25 08:09:00,33.7,28.0,30.30,NNW,330,0.0,2.0,78,0.00,,,0.00,weatherlink.com 1.10,2013-03-25 13:09:00,
2013-03-25 08:24:00,34.7,28.0,30.30,NNW,330,1.0,5.0,76,0.00,,,0.00,weatherlink.com 1.10,2013-03-25 13:24:00,
2013-03-25 08:39:00,35.7,28.0,30.31,NNW,330,0.0,3.0,73,0.00,,,0.00,weatherlink.com 1.10,2013-03-25 13:39:00,
2013-03-25 08:54:00,36.9,27.0,30.32,NNW,329,2.0,5.0,67,0.00,,,0.00,weatherlink.com 1.10,2013-03-25 13:54:00,
2013-03-25 09:09:00,38.0,27.0,30.32,NW,315,1.0,7.0,64,0.00,,,0.00,weatherlink.com 1.10,2013-03-25 14:09:00,
2013-03-25 09:24:00,40.1,27.0,30.33,NNW,337,3.0,7.0,61,0.00,,,0.00,weatherlink.com 1.10,2013-03-25 14:24:00,
2013-03-25 09:39:00,41.8,27.0,30.33,North,350,5.0,6.0,56,0.00,,,0.00,weatherlink.com 1.10,2013-03-25 14:39:00,
2013-03-25 09:54:00,43.2,25.0,30.33,NNW,345,5.0,7.0,49,0.00,,,0.00,weatherlink.com 1.10,2013-03-25 14:54:00,
2013-03-25 10:09:00,44.2,25.0,30.33,NNW,346,3.0,9.0,48,0.00,,,0.00,weatherlink.com 1.10,2013-03-25 15:09:00,
2013-03-25 10:24:00,46.2,24.0,30.34,NW,315,2.0,7.0,41,0.00,,,0.00,weatherlink.com 1.10,2013-03-25 15:24:00,
2013-03-25 10:39:00,46.9,22.0,30.34,North,360,1.0,6.0,38,0.00,,,0.00,weatherlink.com 1.10,2013-03-25 15:39:00,
2013-03-25 10:54:00,48.1,25.0,30.34,NW,316,2.0,6.0,40,0.00,,,0.00,weatherlink.com 1.10,2013-03-25 15:54:00,
2013-03-25 11:09:00,48.4,22.0,30.34,NNW,346,2.0,7.0,35,0.00,,,0.00,weatherlink.com 1.10,2013-03-25 16:09:00,
2013-03-25 11:24:00,49.8,23.0,30.34,North,349,3.0,8.0,35,0.00,,,0.00,weatherlink.com 1.10,2013-03-25 16:24:00,
2013-03-25 11:39:00,50.2,24.0,30.34,West,265,2.0,7.0,36,0.00,,,0.00,weatherlink.com 1.10,2013-03-25 16:39:00,
2013-03-25 11:54:00,52.0,22.0,30.34,WNW,284,0.0,7.0,31,0.00,,,0.00,weatherlink.com 1.10,2013-03-25 16:54:00,
2013-03-25 12:09:00,52.1,22.0,30.33,NW,322,1.0,6.0,31,0.00,,,0.00,weatherlink.com 1.10,2013-03-25 17:09:00,
2013-03-25 12:24:00,51.7,21.0,30.33,NW,315,2.0,7.0,30,0.00,,,0.00,weatherlink.com 1.10,2013-03-25 17:24:00,
2013-03-25 12:39:00,52.3,22.0,30.33,South,184,2.0,7.0,31,0.00,,,0.00,weatherlink.com 1.10,2013-03-25 17:39:00,
2013-03-25 12:54:00,53.8,22.0,30.32,North,355,1.0,5.0,29,0.00,,,0.00,weatherlink.com 1.10,2013-03-25 17:54:00,
2013-03-25 13:09:00,54.6,22.0,30.32,WSW,253,3.0,8.0,28,0.00,,,0.00,weatherlink.com 1.10,2013-03-25 18:09:00,
2013-03-25 13:24:00,54.8,20.0,30.31,North,5,1.0,8.0,26,0.00,,,0.00,weatherlink.com 1.10,2013-03-25 18:24:00,
2013-03-25 13:39:00,56.3,22.0,30.30,North,5,4.0,11.0,26,0.00,,,0.00,weatherlink.com 1.10,2013-03-25 18:39:00,
2013-03-25 13:54:00,56.5,24.0,30.29,NNW,345,5.0,7.0,28,0.00,,,0.00,weatherlink.com 1.10,2013-03-25 18:54:00,
2013-03-25 14:09:00,57.9,26.0,30.28,West,275,4.0,7.0,29,0.00,,,0.00,weatherlink.com 1.10,2013-03-25 19:09:00,
2013-03-25 14:24:00,57.7,22.0,30.27,North,5,1.0,7.0,25,0.00,,,0.00,weatherlink.com 1.10,2013-03-25 19:24:00,
2013-03-25 14:39:00,59.9,25.0,30.26,WNW,303,3.0,7.0,26,0.00,,,0.00,weatherlink.com 1.10,2013-03-25 19:39:00,
2013-03-25 14:54:00,58.9,23.0,30.25,West,277,2.0,7.0,25,0.00,,,0.00,weatherlink.com 1.10,2013-03-25 19:54:00,
2013-03-25 15:09:00,59.5,23.0,30.25,North,355,5.0,7.0,25,0.00,,,0.00,weatherlink.com 1.10,2013-03-25 20:09:00,
2013-03-25 15:24:00,58.1,20.0,30.24,NNW,336,3.0,9.0,23,0.00,,,0.00,weatherlink.com 1.10,2013-03-25 20:24:00,
2013-03-25 15:40:00,58.5,22.0,30.24,West,264,4.0,9.0,24,0.00,,,0.00,weatherlink.com 1.10,2013-03-25 20:40:00,
2013-03-25 15:54:00,59.2,22.0,30.23,ENE,61,2.0,8.0,24,0.00,,,0.00,weatherlink.com 1.10,2013-03-25 20:54:00,
2013-03-25 16:10:00,58.6,22.0,30.23,NNW,342,3.0,7.0,24,0.00,,,0.00,weatherlink.com 1.10,2013-03-25 21:10:00,
2013-03-25 16:25:00,58.7,21.0,30.23,WNW,292,3.0,7.0,23,0.00,,,0.00,weatherlink.com 1.10,2013-03-25 21:25:00,
2013-03-25 16:55:00,58.0,22.0,30.23,NNW,332,3.0,7.0,25,0.00,,,0.00,weatherlink.com 1.10,2013-03-25 21:55:00,
2013-03-25 17:10:00,57.0,23.0,30.23,WSW,250,2.0,9.0,27,0.00,,,0.00,weatherlink.com 1.10,2013-03-25 22:10:00,
2013-03-25 17:25:00,56.9,23.0,30.23,NW,321,4.0,7.0,27,0.00,,,0.00,weatherlink.com 1.10,2013-03-25 22:25:00,
2013-03-25 17:40:00,56.7,22.0,30.23,NNW,340,2.0,7.0,26,0.00,,,0.00,weatherlink.com 1.10,2013-03-25 22:40:00,
2013-03-25 17:55:00,56.1,23.0,30.24,WNW,300,0.0,9.0,28,0.00,,,0.00,weatherlink.com 1.10,2013-03-25 22:55:00,
2013-03-25 18:10:00,55.8,24.0,30.24,NNW,334,0.0,4.0,29,0.00,,,0.00,weatherlink.com 1.10,2013-03-25 23:10:00,
2013-03-25 18:25:00,55.2,23.0,30.25,NW,315,0.0,5.0,29,0.00,,,0.00,weatherlink.com 1.10,2013-03-25 23:25:00,
2013-03-25 18:40:00,54.5,21.0,30.25,NNW,329,2.0,8.0,27,0.00,,,0.00,weatherlink.com 1.10,2013-03-25 23:40:00,
2013-03-25 18:55:00,54.0,23.0,30.25,NW,320,1.0,3.0,30,0.00,,,0.00,weatherlink.com 1.10,2013-03-25 23:55:00,
2013-03-25 19:10:00,53.3,22.0,30.26,WNW,283,0.0,3.0,29,0.00,,,0.00,weatherlink.com 1.10,2013-03-26 00:10:00,
2013-03-25 19:25:00,52.4,25.0,30.26,NW,307,0.0,2.0,34,0.00,,,0.00,weatherlink.com 1.10,2013-03-26 00:25:00,
2013-03-25 19:40:00,51.2,26.0,30.27,NW,307,0.0,2.0,37,0.00,,,0.00,weatherlink.com 1.10,2013-03-26 00:40:00,
2013-03-25 19:55:00,49.7,26.0,30.27,NW,308,0.0,0.0,40,0.00,,,0.00,weatherlink.com 1.10,2013-03-26 00:55:00,
2013-03-25 20:10:00,48.6,27.0,30.28,NW,307,0.0,0.0,44,0.00,,,0.00,weatherlink.com 1.10,2013-03-26 01:10:00,
2013-03-25 20:25:00,47.5,26.0,30.29,NW,308,0.0,1.0,44,0.00,,,0.00,weatherlink.com 1.10,2013-03-26 01:25:00,
2013-03-25 20:40:00,46.6,26.0,30.30,NW,307,0.0,0.0,45,0.00,,,0.00,weatherlink.com 1.10,2013-03-26 01:40:00,
2013-03-25 20:55:00,45.6,26.0,30.31,NW,307,0.0,0.0,47,0.00,,,0.00,weatherlink.com 1.10,2013-03-26 01:55:00,
2013-03-25 21:10:00,44.7,27.0,30.32,NW,307,0.0,0.0,50,0.00,,,0.00,weatherlink.com 1.10,2013-03-26 02:10:00,
2013-03-25 21:24:00,44.0,27.0,30.32,NW,307,0.0,0.0,51,0.00,,,0.00,weatherlink.com 1.10,2013-03-26 02:24:00,
2013-03-25 21:40:00,43.4,27.0,30.33,NW,308,0.0,0.0,53,0.00,,,0.00,weatherlink.com 1.10,2013-03-26 02:40:00,
2013-03-25 21:55:00,42.7,27.0,30.34,NW,308,0.0,0.0,55,0.00,,,0.00,weatherlink.com 1.10,2013-03-26 02:55:00,
2013-03-25 22:10:00,42.0,28.0,30.35,NW,307,0.0,0.0,59,0.00,,,0.00,weatherlink.com 1.10,2013-03-26 03:10:00,
2013-03-25 22:25:00,41.4,29.0,30.36,NW,307,0.0,0.0,62,0.00,,,0.00,weatherlink.com 1.10,2013-03-26 03:25:00,
2013-03-25 22:40:00,41.1,30.0,30.37,NW,307,1.0,2.0,64,0.00,,,0.00,weatherlink.com 1.10,2013-03-26 03:40:00,
2013-03-25 22:55:00,41.2,29.0,30.37,NW,308,0.0,2.0,62,0.00,,,0.00,weatherlink.com 1.10,2013-03-26 03:55:00,
2013-03-25 23:10:00,41.0,27.0,30.38,NW,307,0.0,0.0,59,0.00,,,0.00,weatherlink.com 1.10,2013-03-26 04:10:00,
2013-03-25 23:25:00,40.7,27.0,30.38,NW,307,0.0,0.0,59,0.00,,,0.00,weatherlink.com 1.10,2013-03-26 04:25:00,
2013-03-25 23:40:00,40.5,27.0,30.38,NW,307,0.0,0.0,58,0.00,,,0.00,weatherlink.com 1.10,2013-03-26 04:40:00,
2013-03-25 23:55:00,40.3,26.0,30.39,NW,307,0.0,0.0,57,0.00,,,0.00,weatherlink.com 1.10,2013-03-26 04:55:00,